Time,TemperatureF,DewpointF,PressureIn,WindDirection,WindDirectionDegrees,WindSpeedMPH,WindSpeedGustMPH,Humidity,HourlyPrecipIn,Conditions,Clouds,dailyrainin,SolarRadiationWatts/m^2,SoftwareType,DateUTC
2013-01-12 00:02:00,37.2,36.0,29.89,NE,46,0.0,-999.0,95,-99.99,,,0.00,0,weatherlink.com 1.10,2013-01-12 00:02:00,
2013-01-12 00:17:00,37.1,36.0,29.89,NNE,22,2.0,-999.0,94,-99.99,,,0.00,0,weatherlink.com 1.10,2013-01-12 00:17:00,
2013-01-12 00:32:00,36.9,35.0,29.89,NNE,13,1.0,-999.0,94,-99.99,,,0.00,0,weatherlink.com 1.10,2013-01-12 00:32:00,
2013-01-12 00:47:00,36.8,36.0,29.89,NNE,26,1.0,-999.0,95,-99.99,,,0.00,0,weatherlink.com 1.10,2013-01-12 00:47:00,
2013-01-12 01:02:00,36.8,36.0,29.89,North,355,4.0,-999.0,95,-99.99,,,0.00,0,weatherlink.com 1.10,2013-01-12 01:02:00,
2013-01-12 01:17:00,37.0,36.0,29.89,NNE,22,4.0,-999.0,95,-99.99,,,0.00,0,weatherlink.com 1.10,2013-01-12 01:17:00,
2013-01-12 01:32:00,37.1,36.0,29.89,North,355,3.0,-999.0,95,-99.99,,,0.00,0,weatherlink.com 1.10,2013-01-12 01:32:00,
2013-01-12 01:47:00,37.1,36.0,29.89,NNE,27,2.0,-999.0,94,-99.99,,,0.00,0,weatherlink.com 1.10,2013-01-12 01:47:00,
2013-01-12 02:02:00,37.1,36.0,29.88,NNE,25,3.0,-999.0,94,-99.99,,,0.00,0,weatherlink.com 1.10,2013-01-12 02:02:00,
2013-01-12 02:17:00,37.0,36.0,29.88,NNE,28,3.0,-999.0,94,-99.99,,,0.00,0,weatherlink.com 1.10,2013-01-12 02:17:00,
2013-01-12 02:32:00,36.9,35.0,29.88,NW,319,1.0,-999.0,94,-99.99,,,0.00,0,weatherlink.com 1.10,2013-01-12 02:32:00,
2013-01-12 02:47:00,36.9,35.0,29.88,NNW,327,3.0,-999.0,94,-99.99,,,0.00,0,weatherlink.com 1.10,2013-01-12 02:47:00,
2013-01-12 03:02:00,36.9,35.0,29.88,NNE,25,4.0,-999.0,94,-99.99,,,0.00,0,weatherlink.com 1.10,2013-01-12 03:02:00,
2013-01-12 03:17:00,36.8,35.0,29.88,NNE,30,2.0,-999.0,94,-99.99,,,0.00,0,weatherlink.com 1.10,2013-01-12 03:17:00,
2013-01-12 03:32:00,36.8,35.0,29.88,NE,34,4.0,-999.0,94,-99.99,,,0.00,0,weatherlink.com 1.10,2013-01-12 03:32:00,
2013-01-12 03:47:00,36.7,35.0,29.88,NE,44,1.0,-999.0,94,-99.99,,,0.00,0,weatherlink.com 1.10,2013-01-12 03:47:00,
2013-01-12 04:02:00,36.7,35.0,29.88,NNE,13,3.0,-999.0,95,-99.99,,,0.00,0,weatherlink.com 1.10,2013-01-12 04:02:00,
2013-01-12 04:17:00,36.6,35.0,29.88,North,11,0.0,-999.0,95,-99.99,,,0.01,0,weatherlink.com 1.10,2013-01-12 04:17:00,
2013-01-12 04:32:00,36.5,35.0,29.88,North,350,0.0,-999.0,95,-99.99,,,0.01,0,weatherlink.com 1.10,2013-01-12 04:32:00,
2013-01-12 04:47:00,36.5,35.0,29.88,NNE,30,3.0,-999.0,95,-99.99,,,0.01,0,weatherlink.com 1.10,2013-01-12 04:47:00,
2013-01-12 05:02:00,36.5,35.0,29.88,NNE,25,3.0,-999.0,95,-99.99,,,0.01,0,weatherlink.com 1.10,2013-01-12 05:02:00,
2013-01-12 05:17:00,36.5,35.0,29.88,NNE,25,2.0,-999.0,95,-99.99,,,0.01,0,weatherlink.com 1.10,2013-01-12 05:17:00,
2013-01-12 05:32:00,36.5,35.0,29.88,North,350,2.0,-999.0,95,-99.99,,,0.02,0,weatherlink.com 1.10,2013-01-12 05:32:00,
2013-01-12 05:47:00,36.4,35.0,29.88,North,360,2.0,-999.0,95,-99.99,,,0.02,0,weatherlink.com 1.10,2013-01-12 05:47:00,
2013-01-12 06:02:00,36.2,35.0,29.88,North,360,5.0,-999.0,95,-99.99,,,0.02,0,weatherlink.com 1.10,2013-01-12 06:02:00,
2013-01-12 06:17:00,35.9,35.0,29.88,NNE,25,1.0,-999.0,95,-99.99,,,0.02,0,weatherlink.com 1.10,2013-01-12 06:17:00,
2013-01-12 06:32:00,35.6,34.0,29.89,NNE,15,2.0,-999.0,95,-99.99,,,0.02,0,weatherlink.com 1.10,2013-01-12 06:32:00,
2013-01-12 06:47:00,35.0,34.0,29.89,NW,312,1.0,-999.0,95,-99.99,,,0.02,0,weatherlink.com 1.10,2013-01-12 06:47:00,
2013-01-12 07:02:00,34.7,34.0,29.89,NW,321,0.0,-999.0,95,-99.99,,,0.02,0,weatherlink.com 1.10,2013-01-12 07:02:00,
2013-01-12 07:17:00,34.6,34.0,29.89,NNE,31,3.0,-999.0,96,-99.99,,,0.02,0,weatherlink.com 1.10,2013-01-12 07:17:00,
2013-01-12 07:32:00,34.4,33.0,29.90,North,9,1.0,-999.0,96,-99.99,,,0.02,0,weatherlink.com 1.10,2013-01-12 07:32:00,
2013-01-12 07:47:00,34.4,33.0,29.90,NW,325,1.0,-999.0,96,-99.99,,,0.02,0,weatherlink.com 1.10,2013-01-12 07:47:00,
2013-01-12 08:02:00,34.4,33.0,29.91,NW,309,3.0,-999.0,96,-99.99,,,0.02,0,weatherlink.com 1.10,2013-01-12 08:02:00,
2013-01-12 08:17:00,34.7,34.0,29.91,NE,38,7.0,-999.0,96,-99.99,,,0.02,0,weatherlink.com 1.10,2013-01-12 08:17:00,
2013-01-12 08:33:00,34.9,34.0,29.91,North,360,6.0,-999.0,96,-99.99,,,0.02,0,weatherlink.com 1.10,2013-01-12 08:33:00,
2013-01-12 08:47:00,34.9,34.0,29.92,North,11,3.0,-999.0,96,-99.99,,,0.02,0,weatherlink.com 1.10,2013-01-12 08:47:00,
2013-01-12 09:03:00,34.6,34.0,29.92,ENE,57,3.0,-999.0,96,-99.99,,,0.02,7,weatherlink.com 1.10,2013-01-12 09:03:00,
2013-01-12 09:33:00,34.3,33.0,29.94,NW,319,1.0,-999.0,96,-99.99,,,0.02,18,weatherlink.com 1.10,2013-01-12 09:33:00,
2013-01-12 09:48:00,34.1,33.0,29.94,NNE,27,2.0,-999.0,96,-99.99,,,0.02,21,weatherlink.com 1.10,2013-01-12 09:48:00,
2013-01-12 10:03:00,34.2,33.0,29.95,NNE,14,1.0,-999.0,96,-99.99,,,0.02,32,weatherlink.com 1.10,2013-01-12 10:03:00,
2013-01-12 12:25:00,38.0,36.0,29.95,NNE,25,5.0,-999.0,91,-99.99,,,0.02,76,weatherlink.com 1.10,2013-01-12 12:25:00,
2013-01-12 12:33:00,37.8,36.0,29.95,NNE,27,4.0,-999.0,92,-99.99,,,0.02,54,weatherlink.com 1.10,2013-01-12 12:33:00,
2013-01-12 12:48:00,37.9,36.0,29.95,NE,43,3.0,-999.0,93,-99.99,,,0.02,172,weatherlink.com 1.10,2013-01-12 12:48:00,
2013-01-12 13:03:00,38.8,37.0,29.96,NNE,29,1.0,-999.0,93,-99.99,,,0.02,155,weatherlink.com 1.10,2013-01-12 13:03:00,
2013-01-12 13:18:00,39.4,37.0,29.96,NNE,12,3.0,-999.0,92,-99.99,,,0.02,69,weatherlink.com 1.10,2013-01-12 13:18:00,
2013-01-12 13:33:00,39.6,37.0,29.96,ENE,59,7.0,-999.0,91,-99.99,,,0.02,84,weatherlink.com 1.10,2013-01-12 13:33:00,
2013-01-12 13:48:00,39.7,37.0,29.96,East,79,4.0,-999.0,90,-99.99,,,0.02,44,weatherlink.com 1.10,2013-01-12 13:48:00,
2013-01-12 14:03:00,39.6,37.0,29.96,NE,49,2.0,-999.0,89,-99.99,,,0.02,42,weatherlink.com 1.10,2013-01-12 14:03:00,
2013-01-12 14:18:00,39.8,37.0,29.97,NNE,28,2.0,-999.0,90,-99.99,,,0.02,25,weatherlink.com 1.10,2013-01-12 14:18:00,
2013-01-12 14:33:00,39.7,37.0,29.97,NNE,12,5.0,-999.0,90,-99.99,,,0.02,23,weatherlink.com 1.10,2013-01-12 14:33:00,
2013-01-12 14:48:00,39.6,37.0,29.97,ENE,73,1.0,-999.0,90,-99.99,,,0.02,30,weatherlink.com 1.10,2013-01-12 14:48:00,
2013-01-12 15:03:00,39.5,37.0,29.98,NE,34,0.0,-999.0,89,-99.99,,,0.02,25,weatherlink.com 1.10,2013-01-12 15:03:00,
2013-01-12 15:18:00,39.4,37.0,29.98,NNE,32,0.0,-999.0,89,-99.99,,,0.02,21,weatherlink.com 1.10,2013-01-12 15:18:00,
2013-01-12 15:33:00,39.0,36.0,29.98,North,355,2.0,-999.0,90,-99.99,,,0.02,12,weatherlink.com 1.10,2013-01-12 15:33:00,
2013-01-12 15:48:00,38.8,36.0,29.99,NE,51,2.0,-999.0,91,-99.99,,,0.02,11,weatherlink.com 1.10,2013-01-12 15:48:00,
2013-01-12 16:03:00,38.7,36.0,29.99,North,5,1.0,-999.0,91,-99.99,,,0.02,0,weatherlink.com 1.10,2013-01-12 16:03:00,
2013-01-12 16:18:00,38.7,36.0,30.00,North,9,4.0,-999.0,91,-99.99,,,0.02,0,weatherlink.com 1.10,2013-01-12 16:18:00,
2013-01-12 16:33:00,38.4,36.0,30.00,North,11,0.0,-999.0,91,-99.99,,,0.02,0,weatherlink.com 1.10,2013-01-12 16:33:00,
2013-01-12 16:48:00,38.0,36.0,30.01,NE,36,2.0,-999.0,91,-99.99,,,0.02,0,weatherlink.com 1.10,2013-01-12 16:48:00,
2013-01-12 17:03:00,37.8,36.0,30.02,NE,45,0.0,-999.0,92,-99.99,,,0.02,0,weatherlink.com 1.10,2013-01-12 17:03:00,
2013-01-12 17:18:00,37.7,36.0,30.02,ENE,78,0.0,-999.0,92,-99.99,,,0.02,0,weatherlink.com 1.10,2013-01-12 17:18:00,
2013-01-12 17:33:00,37.5,35.0,30.02,ENE,64,0.0,-999.0,92,-99.99,,,0.02,0,weatherlink.com 1.10,2013-01-12 17:33:00,
2013-01-12 17:48:00,37.2,35.0,30.02,ENE,69,2.0,-999.0,91,-99.99,,,0.02,0,weatherlink.com 1.10,2013-01-12 17:48:00,
2013-01-12 18:03:00,37.1,35.0,30.02,NE,43,0.0,-999.0,91,-99.99,,,0.02,0,weatherlink.com 1.10,2013-01-12 18:03:00,
2013-01-12 18:18:00,36.8,35.0,30.02,NNE,30,2.0,-999.0,91,-99.99,,,0.02,0,weatherlink.com 1.10,2013-01-12 18:18:00,
2013-01-12 18:34:00,36.6,35.0,30.02,NNE,30,0.0,-999.0,92,-99.99,,,0.02,0,weatherlink.com 1.10,2013-01-12 18:34:00,
2013-01-12 18:49:00,36.4,34.0,30.03,NNE,30,0.0,-999.0,92,-99.99,,,0.02,0,weatherlink.com 1.10,2013-01-12 18:49:00,
2013-01-12 19:04:00,36.5,34.0,30.03,NNE,30,0.0,-999.0,92,-99.99,,,0.02,0,weatherlink.com 1.10,2013-01-12 19:04:00,
2013-01-12 19:19:00,36.6,35.0,30.03,NNE,30,0.0,-999.0,92,-99.99,,,0.02,0,weatherlink.com 1.10,2013-01-12 19:19:00,
2013-01-12 19:34:00,36.6,35.0,30.04,NE,45,2.0,-999.0,93,-99.99,,,0.02,0,weatherlink.com 1.10,2013-01-12 19:34:00,
2013-01-12 19:49:00,36.6,35.0,30.04,North,5,0.0,-999.0,93,-99.99,,,0.02,0,weatherlink.com 1.10,2013-01-12 19:49:00,
2013-01-12 20:04:00,36.4,35.0,30.04,North,360,2.0,-999.0,93,-99.99,,,0.02,0,weatherlink.com 1.10,2013-01-12 20:04:00,
2013-01-12 20:19:00,36.0,34.0,30.04,NNW,330,0.0,-999.0,93,-99.99,,,0.02,0,weatherlink.com 1.10,2013-01-12 20:19:00,
2013-01-12 20:34:00,35.9,34.0,30.04,NNE,19,2.0,-999.0,93,-99.99,,,0.02,0,weatherlink.com 1.10,2013-01-12 20:34:00,
2013-01-12 20:49:00,35.8,34.0,30.05,NNE,20,0.0,-999.0,93,-99.99,,,0.02,0,weatherlink.com 1.10,2013-01-12 20:49:00,
2013-01-12 21:04:00,35.7,34.0,30.05,NNE,20,0.0,-999.0,93,-99.99,,,0.02,0,weatherlink.com 1.10,2013-01-12 21:04:00,
2013-01-12 21:19:00,35.6,34.0,30.05,North,9,0.0,-999.0,93,-99.99,,,0.02,0,weatherlink.com 1.10,2013-01-12 21:19:00,
2013-01-12 21:34:00,35.4,34.0,30.06,North,9,1.0,-999.0,93,-99.99,,,0.02,0,weatherlink.com 1.10,2013-01-12 21:34:00,
2013-01-12 21:49:00,35.4,34.0,30.06,North,9,0.0,-999.0,93,-99.99,,,0.02,0,weatherlink.com 1.10,2013-01-12 21:49:00,
2013-01-12 22:04:00,35.2,33.0,30.06,North,9,0.0,-999.0,93,-99.99,,,0.02,0,weatherlink.com 1.10,2013-01-12 22:04:00,
2013-01-12 22:19:00,35.2,34.0,30.05,North,9,1.0,-999.0,94,-99.99,,,0.02,0,weatherlink.com 1.10,2013-01-12 22:19:00,
2013-01-12 22:34:00,35.3,34.0,30.05,North,9,0.0,-999.0,94,-99.99,,,0.02,0,weatherlink.com 1.10,2013-01-12 22:34:00,
2013-01-12 22:49:00,35.3,34.0,30.05,North,9,0.0,-999.0,94,-99.99,,,0.02,0,weatherlink.com 1.10,2013-01-12 22:49:00,
2013-01-12 23:04:00,35.4,34.0,30.07,North,11,2.0,-999.0,94,-99.99,,,0.02,0,weatherlink.com 1.10,2013-01-12 23:04:00,
2013-01-12 23:19:00,35.6,34.0,30.07,North,11,0.0,-999.0,94,-99.99,,,0.02,0,weatherlink.com 1.10,2013-01-12 23:19:00,
2013-01-12 23:34:00,35.4,34.0,30.06,North,11,0.0,-999.0,94,-99.99,,,0.02,0,weatherlink.com 1.10,2013-01-12 23:34:00,
2013-01-12 23:49:00,35.4,34.0,30.06,North,11,0.0,-999.0,94,-99.99,,,0.02,0,weatherlink.com 1.10,2013-01-12 23:49:00,